Location: Saint-Denis
(20.8800°S, 55.4481°E)
Time: 19:33:42
(UTC+04:00)

PRISM - Visible Passes

Search period start: 28 May 2023 00:00
Search period end: 07 June 2023 00:00
Orbit: 536 x 560 km, 98.2° (Epoch: 27 May)

Date Brightness Start Highest point End Pass type
(mag) Time Alt. Az. Time Alt. Az. Time Alt. Az.
28 May ? 06:15:38 10° NNE 06:19:30 64° ESE 06:23:27 10° S visible
28 May ? 18:03:39 10° SE 18:06:25 18° E 18:09:10 10° NE visible
28 May ? 19:37:57 10° SSW 19:40:51 19° WSW 19:43:41 10° WNW visible
29 May ? 06:10:50 10° NNE 06:14:39 53° ESE 06:18:33 10° S visible
29 May ? 19:32:51 10° SSW 19:36:00 22° WSW 19:39:07 10° NW visible
30 May ? 06:06:03 10° NNE 06:09:47 44° ESE 06:13:36 10° S visible
30 May ? 19:27:46 10° SSW 19:31:09 26° WSW 19:34:28 10° NW visible
31 May ? 06:01:17 10° NE 06:04:55 37° ESE 06:08:37 10° S visible
31 May ? 19:22:43 10° SSW 19:26:16 31° WSW 19:29:47 10° NW visible
01 Jun ? 05:56:32 10° NE 06:00:02 31° ESE 06:03:36 10° SSE visible
01 Jun ? 19:17:40 10° S 19:21:23 36° WSW 19:25:02 10° NW visible
02 Jun ? 05:51:49 10° NE 05:55:08 26° ESE 05:58:31 10° SSE visible
02 Jun ? 19:12:39 10° S 19:16:28 43° WSW 19:20:14 10° NNW visible
03 Jun ? 05:47:07 10° NE 05:50:14 23° ESE 05:53:23 10° SSE visible
03 Jun ? 19:07:37 10° S 19:11:32 52° WSW 19:15:23 10° NNW visible
04 Jun ? 05:42:28 10° ENE 05:45:19 19° ESE 05:48:11 10° SSE visible
04 Jun ? 19:02:37 10° S 19:06:35 63° WSW 19:10:29 10° NNW visible
05 Jun ? 05:37:52 10° ENE 05:40:23 16° ESE 05:42:55 10° SSE visible
05 Jun ? 18:57:37 10° S 19:01:37 77° WSW 19:05:33 10° NNW visible
06 Jun ? 05:33:21 10° ENE 05:35:26 14° ESE 05:37:31 10° SE visible
06 Jun ? 18:52:37 10° SSE 18:56:38 88° E 19:00:34 10° NNW visible
